Regional Weather Roundup
Issued by NWS Green Bay, WI

Home | Current Version | Previous Version | Text Only | Print | Product List | Glossary On
Versions: 1 2 3 4 5 6 7 8 9 10 11 12 13 14 15 16 17 18 19 20 21 22 23 24 25 26 27 28 29 30 31 32 33 34 35 36 37 38 39 40 41 42 43 44 45 46 47 48 49 50
660
ASUS43 KGRB 250711
RWRGRB

NORTH-CENTRAL AND NORTHEAST WISCONSIN REGIONAL WEATHER ROUNDUP
NATIONAL WEATHER SERVICE GREEN BAY WI
200 AM CDT TUE JUL 25 2017

WIZ005-009-010>012-018-019-250800-
NORTH CENTRAL WISCONSIN

CITY           SKY/WX    TMP DP  RH WIND       PRES   REMARKS
IRONWOOD       FAIR      63  56  78 VRB5      30.09F
MANITOWISH WTR FAIR      59  59  98 S8        30.13S
ARBOR VITAE    FAIR      61  56  82 S5        30.13F
EAGLE RIVER    FAIR      55  53  91 CALM      30.14S
LAND O LAKES   FAIR      52  51  99 CALM      30.16R
RHINELANDER    FAIR      56  52  86 SW3       30.16R
PHILLIPS       FAIR      59  57  93 SE5       30.11F
ANTIGO         FAIR      53  51  92 S6        30.17R
TOMAHAWK         N/A     53  51  93 CALM      30.15F
MERRILL        FAIR      52  52 100 CALM      30.16R
$$

WIZ013-073-250800-
NORTHEAST WISCONSIN

CITY           SKY/WX    TMP DP  RH WIND       PRES   REMARKS
IRON MOUNTAIN  FAIR      56  53  90 S3        30.13S
MARINETTE      FAIR      56  55  97 CALM      30.15R
OCONTO         FAIR      53  51  95 CALM      30.14S
$$

WIZ017-030-035>037-045-250800-
CENTRAL WISCONSIN

CITY           SKY/WX    TMP DP  RH WIND       PRES   REMARKS
MEDFORD        FAIR      57  54  91 SE5       30.13F
WAUSAU         FAIR      59  52  77 SE3       30.14R
MOSINEE        FAIR      55  52  88 SE3       30.16R
MARSHFIELD     FAIR      59  53  80 S5        30.14R
WISC RAPIDS    FAIR      58  54  86 SE6       30.16R
STEVENS POINT  FAIR      53  51  94 CALM      30.16S
WAUPACA        FAIR      57  56  96 CALM      30.16R
SHAWANO        FAIR      59  54  81 CALM      30.15R
CLINTONVILLE   FAIR     N/A N/A N/A CALM      30.15R
WAUTOMA        FAIR      54  53  97 CALM      30.16R
$$

WIZ038-039-048-051-250800-
FOX VALLEY

CITY           SKY/WX    TMP DP  RH WIND       PRES   REMARKS
NWS GREEN BAY  FAIR      56  56 100 CALM      30.15R
APPLETON       FAIR      63  43  48 CALM      30.14S
OSHKOSH        FAIR      56  50  80 CALM      30.14R
FOND DU LAC    FAIR      53  49  86 CALM      30.14R
$$

WIZ022-050-052-250800-
EAST CENTRAL WISCONSIN

CITY           SKY/WX    TMP DP  RH WIND       PRES   REMARKS
EPHRAIM        FAIR      59  48  67 CALM      30.13F
WASHINGTON ISL NOT AVBL
STURGEON BAY     N/A     55  52  89 CALM      30.15S
MANITOWOC      FAIR      53  50  89 CALM      30.15S
SHEBOYGAN      FAIR      51  51 100 CALM      30.14S
$$

LMZ563-521-522-541>543-250800-
LAKESHORE

STATION/POSITION TIME  TEMP    WIND        PRES    VSBY  WAVE
                       AIR SEA DIR/SP/G                  HT/PER
                 (UTC) (F)     (DEG/KT/KT) (MB)    (MI)  (FT/S)
SHEBOYGAN LKSHOR 0700   62     310/  3/  3 1020.5R
KEWAUNEE LKSHORE 0648          310/  3/  4 1019.7R
NORTHPORT PIER   0640   60        CALM     1020.3S
N MID LAKE BUOY  0650   65 66   60/  2/  2 1021.3R         0
S GREEN BAY BUOY 0700   69 72  140/  8/  8 1020.2
SISTER BAY LKSHO 0617   61        CALM       N/A
CHAMBERS ISLAND  0640   56      CALM  /  1 1020.0S
MENOMINEE LKSHOR 0648          170/  3/  4 1020.1S
$$




USA.gov is the U.S. government's official web portal to all federal, state and local government web resources and services.